Weather History for Darwin Airport, Northern Territory

Change the Weather History Date:

Tuesday, February 5, 2013

  Actual Average Record
Temperature  
Mean Temperature 84 °F -  
Max Temperature 91 °F 89 °F - ()
Min Temperature 76 °F 76 °F - ()
Cooling Degree Days 18    
Growing Degree Days 34 (Base 50)    
Moisture  
Dew Point 78 °F    
Average Humidity 75    
Maximum Humidity 94    
Minimum Humidity 55    
Precipitation  
Precipitation 0.01 in 0.45 in - ()
Sea Level Pressure  
Sea Level Pressure 29.81 in    
Wind  
Wind Speed 6 mph ()    
Max Wind Speed 15 mph    
Max Gust Speed -    
Visibility 8.5 miles    
Events Rain    
T = Trace of Precipitation, MM = Missing Value Source: Averaged Metar Reports

Daily Weather History Graph

Daily Weather History Graph

Search for Another Location

Airport:

Trip Planner

Search our weather history database for the weather conditions in past years. The results will help you decide how hot, cold, wet, or windy it might be!

Date:

Astronomy

Feb. 05, 2013 Rise Set
Actual Time 6:42 AM CST 7:18 PM CST
Civil Twilight 6:20 AM CST 7:40 PM CST
Nautical Twilight 5:54 AM CST 8:06 PM CST
Astronomical Twilight 5:28 AM CST 8:32 PM CST
Moon 1:22 AM CST (2/5) 2:27 PM CST (2/5)
Length of Visible Light 13h 20m
Length of Day
12h 35m
Waning Crescent, 33% of the Moon is Illuminated
Feb 5
Waning Crescent
Feb 10
New
Feb 18
First Quarter
Feb 26
Full
Mar 5
Last Quarter

Hourly Weather History & Observations

Time (CST) Temp. Heat Index Dew Point Humidity Pressure Visibility Wind Dir Wind Speed Gust Speed Precip Events Conditions
12:00 AM 84 °F - 78 °F 79% 29.83 in 19 mi West 3.5 mph - -   Partly Cloudy
12:00 AM 84.2 °F 96.1 °F 78.8 °F 84% 29.83 in - West 3.5 mph - N/A   Clear
12:30 AM 84 °F - 79 °F 80% 29.82 in - WSW 3.5 mph - -  
12:30 AM 84.2 °F 96.1 °F 78.8 °F 84% 29.83 in - WSW 3.5 mph - N/A   Clear
1:00 AM 84.2 °F 96.1 °F 78.8 °F 84% 29.80 in - WSW 3.5 mph - N/A   Clear
1:30 AM 84.2 °F 96.1 °F 78.8 °F 84% 29.80 in - WSW 3.5 mph - N/A   Clear
2:00 AM 84.2 °F 96.1 °F 78.8 °F 84% 29.80 in - WSW 2.3 mph - N/A   Clear
2:30 AM 84.2 °F 94.1 °F 77.0 °F 79% 29.77 in - West 3.5 mph - N/A   Clear
3:00 AM 83 °F - 78 °F 79% 29.78 in 19 mi West 3.5 mph - -   Clear
3:00 AM 82.4 °F 90.9 °F 77.0 °F 84% 29.77 in - West 3.5 mph - N/A   Clear
3:30 AM 83 °F - 78 °F 79% 29.78 in - West 3.5 mph - -  
3:30 AM 82.4 °F 90.9 °F 77.0 °F 84% 29.77 in - West 3.5 mph - N/A   Clear
4:00 AM 82.4 °F 90.9 °F 77.0 °F 84% 29.77 in - West 3.5 mph - N/A   Clear
4:30 AM 82.4 °F 90.9 °F 77.0 °F 84% 29.77 in - West 3.5 mph - N/A   Clear
5:00 AM 82.4 °F 90.9 °F 77.0 °F 84% 29.77 in - West 3.5 mph - N/A   Clear
5:30 AM 82.4 °F 90.9 °F 77.0 °F 84% 29.80 in - West 3.5 mph - N/A   Clear
6:00 AM 81 °F - 78 °F 89% 29.81 in 19 mi West 3.5 mph - -   Partly Cloudy
6:00 AM 80.6 °F 88.1 °F 78.8 °F 94% 29.80 in 6.2 mi West 3.5 mph - N/A   Scattered Clouds
6:30 AM 80 °F - 78 °F 92% 29.83 in - West 2.3 mph - -  
6:30 AM 80.6 °F 88.1 °F 78.8 °F 94% 29.83 in 6.2 mi West 2.3 mph - N/A   Scattered Clouds
7:00 AM 80.6 °F 88.1 °F 78.8 °F 94% 29.83 in 6.2 mi West 3.5 mph - N/A   Scattered Clouds
7:30 AM 82.4 °F 92.4 °F 78.8 °F 89% 29.83 in 6.2 mi West 2.3 mph - N/A   Scattered Clouds
8:00 AM 86.0 °F 99.3 °F 78.8 °F 79% 29.86 in 6.2 mi WNW 3.5 mph - N/A   Partly Cloudy
8:30 AM 86.0 °F 101.9 °F 80.6 °F 84% 29.86 in 6.2 mi WNW 3.5 mph - N/A   Scattered Clouds
9:00 AM 87 °F - 80 °F 74% 29.87 in 19 mi SW 6.9 mph - -   Partly Cloudy
9:00 AM 86.0 °F 101.9 °F 80.6 °F 84% 29.86 in 6.2 mi SW 6.9 mph - N/A   Scattered Clouds
9:30 AM 86 °F - 78 °F 72% 29.87 in - South 8.1 mph - -  
9:30 AM 86.0 °F 99.3 °F 78.8 °F 79% 29.86 in 6.2 mi South 8.1 mph - N/A   Scattered Clouds
10:00 AM 89.6 °F 102.2 °F 77.0 °F 66% 29.86 in 6.2 mi WSW 6.9 mph - N/A   Partly Cloudy
10:30 AM 89.6 °F 99.8 °F 75.2 °F 62% 29.86 in 6.2 mi SW 5.8 mph - N/A   Partly Cloudy
11:00 AM 91.4 °F 100.1 °F 73.4 °F 55% 29.86 in 6.2 mi West 8.1 mph - N/A   Partly Cloudy
11:30 AM 89.6 °F 102.2 °F 77.0 °F 66% 29.86 in 6.2 mi NW 11.5 mph - N/A   Partly Cloudy
12:00 PM 91 °F - 78 °F 59% 29.85 in 19 mi NW 9.2 mph - -   Partly Cloudy
12:00 PM 91.4 °F 107.2 °F 78.8 °F 66% 29.86 in 6.2 mi NW 9.2 mph - N/A   Scattered Clouds
12:30 PM 90 °F - 78 °F 60% 29.84 in - NW 10.4 mph - -  
12:30 PM 89.6 °F 104.7 °F 78.8 °F 70% 29.83 in 6.2 mi NW 10.4 mph - N/A   Scattered Clouds
1:00 PM 89.6 °F 104.7 °F 78.8 °F 70% 29.83 in 6.2 mi WNW 12.7 mph - N/A   Scattered Clouds
1:30 PM 91.4 °F 107.2 °F 78.8 °F 66% 29.80 in 6.2 mi WNW 12.7 mph - N/A   Partly Cloudy
2:00 PM 89.6 °F 102.2 °F 77.0 °F 66% 29.80 in 6.2 mi WNW 13.8 mph - N/A   Partly Cloudy
2:30 PM 91.4 °F 105.1 °F 77.0 °F 63% 29.77 in 6.2 mi WNW 15.0 mph - N/A   Partly Cloudy
3:00 PM 90 °F - 76 °F 57% 29.78 in 19 mi WNW 15.0 mph - -   Partly Cloudy
3:00 PM 89.6 °F 102.2 °F 77.0 °F 66% 29.77 in 6.2 mi WNW 15.0 mph - N/A   Partly Cloudy
3:30 PM 90 °F - 78 °F 60% 29.77 in - WNW 15.0 mph - -  
3:30 PM 89.6 °F 102.2 °F 77.0 °F 66% 29.77 in 6.2 mi WNW 15.0 mph - N/A Rain Light Rain Showers
4:00 PM 91.4 °F 105.1 °F 77.0 °F 63% 29.77 in 6.2 mi NW 13.8 mph - N/A   Partly Cloudy
4:30 PM 91.4 °F 102.5 °F 75.2 °F 59% 29.74 in 6.2 mi NW 11.5 mph - N/A   Partly Cloudy
5:00 PM 91.4 °F 105.1 °F 77.0 °F 63% 29.74 in 6.2 mi WNW 13.8 mph - N/A   Scattered Clouds
5:30 PM 89.6 °F 102.2 °F 77.0 °F 66% 29.77 in 6.2 mi WNW 12.7 mph - N/A   Scattered Clouds
6:00 PM 89 °F - 78 °F 62% 29.76 in 19 mi WNW 10.4 mph - -   Partly Cloudy
6:00 PM 89.6 °F 102.2 °F 77.0 °F 66% 29.77 in 6.2 mi WNW 10.4 mph - N/A   Mostly Cloudy
6:30 PM 89 °F - 77 °F 59% 29.77 in - WNW 10.4 mph - -  
6:30 PM 89.6 °F 102.2 °F 77.0 °F 66% 29.77 in 6.2 mi WNW 10.4 mph - N/A   Mostly Cloudy
7:00 PM 87.8 °F 99.7 °F 77.0 °F 70% 29.77 in 6.2 mi WNW 10.4 mph - N/A   Mostly Cloudy
7:30 PM 87.8 °F 102.5 °F 78.8 °F 75% 29.77 in 6.2 mi WNW 10.4 mph - N/A   Mostly Cloudy
8:00 PM 86.0 °F 99.3 °F 78.8 °F 79% 29.77 in 6.2 mi WNW 9.2 mph - N/A   Mostly Cloudy
8:30 PM 86.0 °F 96.9 °F 77.0 °F 74% 29.80 in 6.2 mi West 9.2 mph - N/A   Mostly Cloudy
9:00 PM 86 °F - 78 °F 70% 29.80 in 19 mi WNW 9.2 mph - -   Partly Cloudy
9:00 PM 86.0 °F 96.9 °F 77.0 °F 74% 29.80 in 6.2 mi WNW 9.2 mph - N/A   Mostly Cloudy
9:30 PM 86 °F - 78 °F 70% 29.80 in - West 8.1 mph - -  
9:30 PM 86.0 °F 96.9 °F 77.0 °F 74% 29.80 in 6.2 mi West 8.1 mph - N/A   Mostly Cloudy
10:00 PM 86.0 °F 99.3 °F 78.8 °F 79% 29.80 in 6.2 mi WNW 10.4 mph - N/A   Mostly Cloudy
10:30 PM 86.0 °F 99.3 °F 78.8 °F 79% 29.80 in 6.2 mi NW 10.4 mph - N/A   Scattered Clouds
11:00 PM 86.0 °F 99.3 °F 78.8 °F 79% 29.83 in 6.2 mi WNW 13.8 mph - N/A   Scattered Clouds
11:30 PM 86.0 °F 99.3 °F 78.8 °F 79% 29.83 in 6.2 mi WNW 11.5 mph - N/A   Partly Cloudy